Location: Altenhof
(50.2418°N, 10.8789°E)
Time: 19:13:27
(UTC+00:00)

NOSS 3-1 (A) - Pass Details

Date: 18 February 2020
Orbit: 761 x 1452 km, 63.4° (Epoch: 26 March)

Event Time Altitude Azimuth Distance (km) Brightness Sun altitude
Exits shadow 02:56:37 86° 324° (NW) 1,274 3.9 -33.2°
Maximum altitude 02:56:49 90° 41° (NE) 1,275 3.9 -33.1°
Drops below altitude 10° 03:05:23 10° 139° (SE) 3,466 6.5 -31.9°
Sets 03:08:25 0° 140° (SE) 4,488 7.2 -31.4°
